This demonstration page uses our WeatherBlox Daily Observations layout. Learn more.

Left ArrowRight Arrow

Hourly Observations for May 27, 2021

Temp ( °F °C ) Dew Point ( °F °C ) Humidity (%) Winds ( mph kmh ) Pressure ( in mb ) Visibility ( mi km ) Precip ( " mm )
12:53 am 00:53 Clear 66 18.9 33 0.6 29 29 NE 3 6 29.95 1014 10 16 0.00 0.00
1:53 am 01:53 Clear 64 17.8 34 1.1 33 33 NNE 5 7 29.95 1014 10 16 0.00 0.00
2:53 am 02:53 Clear 60 15.6 35 1.7 39 39 Calm 29.96 1014 10 16 0.00 0.00
3:53 am 03:53 Clear 58 14.4 37 2.8 46 46 Calm 29.97 1015 10 16 0.00 0.00
4:53 am 04:53 Clear 58 14.4 38 3.3 48 48 N 3 6 29.98 1015 10 16 0.00 0.00
5:53 am 05:53 Sunny 54 12.2 38 3.3 55 55 ENE 5 7 29.99 1016 10 16 0.00 0.00
6:53 am 06:53 Sunny 59 15 38 3.3 46 46 Calm 30.01 1016 10 16 0.00 0.00
7:53 am 07:53 Sunny 64 17.8 39 3.9 40 40 Calm 30.03 1017 10 16 0.00 0.00
8:53 am 08:53 Sunny 68 20 41 5 38 38 Calm 30.04 1017 10 16 0.00 0.00
9:53 am 09:53 Sunny 73 22.8 37 2.8 27 27 W 6 9 30.04 1017 10 16 0.00 0.00
10:53 am 10:53 Sunny 75 23.9 37 2.8 25 25 Calm 30.04 1017 10 16 0.00 0.00
11:53 am 11:53 Sunny 79 26.1 38 3.3 23 23 VRB 5 7 30.02 1017 10 16 0.00 0.00
12:53 pm 12:53 Sunny 83 28.3 37 2.8 19 19 VRB 5 7 30.00 1016 10 16 0.00 0.00
1:53 pm 13:53 Sunny 85 29.4 36 2.2 17 17 VRB 5 7 29.97 1015 10 16 0.00 0.00
2:53 pm 14:53 Sunny 87 30.6 38 3.3 18 18 Calm 29.95 1014 10 16 0.00 0.00
3:53 pm 15:53 Sunny 86 30 38 3.3 18 18 ESE 9 15 29.93 1014 10 16 0.00 0.00
4:53 pm 16:53 Sunny 86 30 36 2.2 17 17 SE 9 15 29.92 1013 10 16 0.00 0.00
5:53 pm 17:53 Sunny 87 30.6 37 2.8 17 17 SE 7 11 29.91 1013 10 16 0.00 0.00
6:53 pm 18:53 Mostly Cloudy 87 30.6 36 2.2 16 16 SSE 10 17 29.91 1013 10 16 0.00 0.00
7:53 pm 19:53 Sunny 83 28.3 46 7.8 27 27 VRB 5 7 29.92 1013 10 16 0.00 0.00
8:53 pm 20:53 Clear 79 26.1 47 8.3 32 32 NW 6 9 29.93 1014 10 16 0.00 0.00
9:53 pm 21:53 Clear 77 25 46 7.8 33 33 WNW 9 15 29.94 1014 10 16 0.00 0.00
10:53 pm 22:53 Clear 76 24.4 46 7.8 35 35 WNW 6 9 29.96 1014 10 16 0.00 0.00
11:53 pm 23:53 Clear 74 23.3 46 7.8 37 37 W 3 6 29.96 1015 10 16 0.00 0.00

Powered by AerisWeather